User: anonymous   Login
Location: D�derode
(51.8092°N, 10.1065°E)
Time: 07:50:12
(UTC+00:00)
Language:

FengYun 1-2 T - Orbit

View from above orbital plane
View from above orbital plane
View from above satellite
View from above satellite

Ground track
Ground track

The orbit data is extracted from the following two-line orbital elements,

1 20855U 90081T   21057.93040654 -.00000134  00000-0 -53104-4 0  9991
2 20855  98.7057  70.6276 0023598 204.8647 216.3729 14.08688720566667
Epoch (UTC): 26 February 2021 22:19:47
Eccentricity: 0.0023598
inclination: 98.7057°
perigee height: 847 km
apogee height: 881 km
right ascension of ascending node: 70.6276°
argument of perigee: 204.8647°
revolutions per day: 14.08688720
mean anomaly at epoch: 216.3729°
orbit number at epoch: 56666

The dashed part of the orbit path shows where the satellite is in the earth's shadow,  

DLR